STARLINK-35995

Last updated on Mon Dec 15 2025 00:02:12 GMT+0000 (Coordinated Universal Time)

1 66817U 25278AC 25348.25003472 -.01408609 00000+0 -73016-2 0 9995 2 66817 42.9974 242.6917 0001806 276.3967 155.1162 15.82631782 3200
UTC large
Height (km)
Speed (km/s)
/
Latitude / Longitude
Inclination (degrees)
Orbital Period (minutes)
Azimuth
Elevation
Range (km)
Doppler Factor

Next 0 passes for location: London (51.5072 / 0.1276)

Sorry there are no passes over London.